TimeMDT,TemperatureF,Dew PointF,Humidity,Sea Level PressureIn,VisibilityMPH,Wind Direction,Wind SpeedMPH,Gust SpeedMPH,PrecipitationIn,Events,Conditions,WindDirDegrees,DateUTC
12:53 AM,62.1,55.0,78,29.87,10.0,WSW,12.7,20.7,N/A,,Overcast,240,2013-07-05 06:53:00
1:53 AM,62.1,55.0,78,29.84,10.0,West,6.9,-,N/A,,Clear,260,2013-07-05 07:53:00
2:53 AM,61.0,54.0,78,29.81,10.0,West,5.8,-,N/A,,Clear,280,2013-07-05 08:53:00
3:53 AM,61.0,53.1,75,29.77,10.0,Calm,Calm,-,N/A,,Mostly Cloudy,0,2013-07-05 09:53:00
4:53 AM,61.0,52.0,72,29.77,10.0,East,3.5,-,N/A,,Overcast,100,2013-07-05 10:53:00
5:53 AM,60.1,52.0,75,29.81,10.0,West,3.5,-,N/A,,Overcast,260,2013-07-05 11:53:00
6:53 AM,60.1,54.0,80,29.81,10.0,Calm,Calm,-,0.00,,Mostly Cloudy,0,2013-07-05 12:53:00
7:53 AM,62.1,54.0,75,29.81,10.0,Calm,Calm,-,0.00,Rain,Light Rain,0,2013-07-05 13:53:00
8:53 AM,62.1,57.0,84,29.80,10.0,Calm,Calm,-,0.00,,Overcast,0,2013-07-05 14:53:00
9:53 AM,64.9,55.9,73,29.79,10.0,Calm,Calm,-,N/A,,Overcast,0,2013-07-05 15:53:00
10:53 AM,68.0,54.0,61,29.79,10.0,Calm,Calm,-,N/A,,Overcast,0,2013-07-05 16:53:00
11:53 AM,72.0,52.0,49,29.78,10.0,SSE,4.6,-,N/A,,Overcast,160,2013-07-05 17:53:00
12:53 PM,75.0,51.1,43,29.76,10.0,Variable,6.9,-,N/A,,Partly Cloudy,0,2013-07-05 18:53:00
1:53 PM,77.0,51.1,40,29.75,10.0,SE,10.4,16.1,N/A,,Scattered Clouds,130,2013-07-05 19:53:00
2:53 PM,75.9,52.0,43,29.75,10.0,Variable,6.9,18.4,N/A,,Clear,0,2013-07-05 20:53:00
3:53 PM,75.0,52.0,44,29.74,10.0,SSE,8.1,-,N/A,,Clear,150,2013-07-05 21:53:00
4:53 PM,75.0,52.0,44,29.72,10.0,SE,9.2,17.3,N/A,,Clear,140,2013-07-05 22:53:00
5:53 PM,75.0,52.0,44,29.72,10.0,ESE,11.5,17.3,N/A,,Clear,120,2013-07-05 23:53:00
6:53 PM,72.0,53.1,51,29.73,10.0,SE,8.1,18.4,N/A,,Scattered Clouds,130,2013-07-06 00:53:00
7:25 PM,69.8,55.4,60,29.93,10.0,ENE,4.6,-,0.00,Rain-Thunderstorm,Light Rain,60,2013-07-06 01:25:00
7:40 PM,64.4,60.8,88,29.94,5.0,North,4.6,-,0.02,Rain,Rain,350,2013-07-06 01:40:00
7:53 PM,64.0,60.1,87,29.76,6.0,NE,6.9,-,0.05,Rain,Light Rain,40,2013-07-06 01:53:00
8:53 PM,63.0,61.0,93,29.78,7.0,East,8.1,-,0.08,Rain,Light Rain,100,2013-07-06 02:53:00
9:53 PM,61.0,59.0,93,29.79,10.0,Calm,Calm,-,0.01,,Clear,0,2013-07-06 03:53:00
10:53 PM,61.0,59.0,93,29.76,10.0,Calm,Calm,-,N/A,,Partly Cloudy,0,2013-07-06 04:53:00
11:53 PM,60.1,59.0,96,29.73,9.0,NNW,4.6,-,N/A,,Clear,340,2013-07-06 05:53:00